Weather in La Piedad de Cabadas

Mexico     20°20′32″N   102°01′15″W
temp.,
°C
wind,
m/s
gust,
m/s
humid.,
%
clouds,
%
prec.,
mm/h
press.,
hPa
HPBL,
m
17 january, sun
sun1700:00+13ssw1268100 0.0 101623
03:00+12sw1174100 0.0 101622
06:00+11sse1183100 0.0 101622
09:00+16n0156100 0.0 1018144
12:00+24wnw342767 0.0 10162084
15:00+26w341812 0.0 10122688
18:00+22wsw35216 0.0 1012211
21:00+13se013321 0.0 101523
18 january, mon
mon1800:00+11sse114238 0.0 101722
03:00+9ese115453 0.0 101622
06:00+7e115627 0.0 101822
09:00+13e12394 0.0 1019163
12:00+27ene111910 0.0 10161234
15:00+28wnw24197 0.0 10112684
18:00+21wsw473844 0.1 1011906
21:00+13ssw127331 0.1 101524
19 january, tue
tue1900:00+11s118349 0.1 101723
03:00+10sse018842 0.0 101722
06:00+9ese119041 0.0 101722
09:00+15ese116029 0.0 1019175
12:00+24e223165 0.0 10161328
15:00+28ene132377 0.0 10122469
18:00+21w253688 0.0 1012135
21:00+16w1160100 0.0 101625
20 january, wed
wed2000:00+14s1166100 0.0 101723
03:00+15sse0061100 0.0 101823
06:00+14ene1165100 0.0 101829
09:00+15ene3669100 0.0 1021639
12:00+20e4647100 0.0 1018998
15:00+22ene2440100 0.0 10141474
18:00+21ne0142100 0.0 101328
21:00+17e0154100 0.0 101723
21 january, thu
thu2100:00+14e1171100 0.0 101823
03:00+11e118995 0.0 101923
06:00+10ese119494 0.0 101922
09:00+15e1373100 0.0 1021243
12:00+25se123697 0.0 10171375
15:00+28wsw2522100 0.0 10132712
18:00+23w4728100 0.0 1013671
21:00+14wsw226226 0.0 101826